• In Slovakia
  • List of Countries
  • For 7 days
  • Water Temperature
  • Satellite Maps
  • Weather Map
  • Weather Widgets
  • user-avatar
    Login

    Hourly Weather Ali Bayramli

    Today, 20 January, Saturday

    Time Temperature Precipitation Wind Pressure Humidity
    00:00 +7°C° 0 mm 3 mps 757 mmHg 80%
    01:00 +7°C° 0 mm 3 mps 757 mmHg 81%
    02:00 +5°C° 0 mm 3 mps 758 mmHg 82%
    03:00 +5°C° 0 mm 3 mps 758 mmHg 83%
    04:00 +5°C° 0 mm 3 mps 759 mmHg 83%
    05:00 +5°C° 0 mm 3 mps 759 mmHg 84%
    06:00 +5°C° 0 mm 3 mps 760 mmHg 84%
    07:00 +5°C° 0 mm 3 mps 760 mmHg 80%
    08:00 +7°C° 0 mm 3 mps 761 mmHg 77%
    09:00 +7°C° 0 mm 3 mps 762 mmHg 73%
    10:00 +8°C° 0 mm 3 mps 762 mmHg 69%
    11:00 +9°C° 0 mm 3 mps 762 mmHg 66%
    12:00 +9°C° 0 mm 3 mps 763 mmHg 62%
    13:00 +10°C° 0 mm 3 mps 763 mmHg 61%
    14:00 +10°C° 0 mm 3 mps 763 mmHg 61%
    15:00 +10°C° 0 mm 3 mps 763 mmHg 61%
    16:00 +10°C° 0 mm 3 mps 763 mmHg 64%
    17:00 +9°C° 0 mm 2 mps 764 mmHg 67%
    18:00 +9°C° 0 mm 2 mps 764 mmHg 70%
    19:00 +8°C° 0 mm 2 mps 765 mmHg 74%
    20:00 +8°C° 0 mm 2 mps 765 mmHg 77%
    21:00 +7°C° 0 mm 2 mps 765 mmHg 80%
    22:00 +7°C° 0 mm 2 mps 765 mmHg 83%
    23:00 +7°C° 0 mm 2 mps 765 mmHg 85%

    Tomorrow, 21 January, Sunday

    Time Temperature Precipitation Wind Pressure Humidity
    00:00 +6°C° 0 mm 2 mps 765 mmHg 87%
    01:00 +6°C° 0 mm 2 mps 764 mmHg 89%
    02:00 +6°C° 0 mm 2 mps 764 mmHg 90%
    03:00 +6°C° 0 mm 2 mps 764 mmHg 91%
    04:00 +6°C° 0 mm 2 mps 764 mmHg 91%
    05:00 +5°C° 0 mm 2 mps 764 mmHg 91%
    06:00 +5°C° 0 mm 2 mps 764 mmHg 90%
    07:00 +6°C° 0 mm 2 mps 764 mmHg 87%
    08:00 +7°C° 0 mm 3 mps 764 mmHg 83%
    09:00 +7°C° 0 mm 3 mps 763 mmHg 79%
    10:00 +9°C° 0 mm 3 mps 763 mmHg 73%
    11:00 +10°C° 0 mm 4 mps 762 mmHg 66%
    12:00 +11°C° 0 mm 4 mps 761 mmHg 60%
    13:00 +11°C° 0 mm 4 mps 761 mmHg 57%
    14:00 +12°C° 0 mm 4 mps 761 mmHg 55%
    15:00 +12°C° 0 mm 4 mps 760 mmHg 52%
    16:00 +11°C° 0 mm 4 mps 760 mmHg 56%
    17:00 +10°C° 0 mm 4 mps 760 mmHg 60%
    18:00 +8°C° 0 mm 4 mps 761 mmHg 64%
    19:00 +8°C° 0 mm 4 mps 761 mmHg 67%
    20:00 +8°C° 0 mm 4 mps 761 mmHg 70%
    21:00 +8°C° 0 mm 3 mps 761 mmHg 73%
    22:00 +8°C° 0 mm 3 mps 761 mmHg 74%
    23:00 +7°C° 0 mm 3 mps 761 mmHg 74%

    Day after tomorrow, 22 January, Monday

    Time Temperature Precipitation Wind Pressure Humidity
    00:00 +7°C° 0 mm 2 mps 761 mmHg 75%
    01:00 +7°C° 0 mm 2 mps 761 mmHg 75%
    02:00 +7°C° 0 mm 2 mps 760 mmHg 75%
    03:00 +6°C° 0 mm 2 mps 760 mmHg 75%
    04:00 +6°C° 0 mm 2 mps 760 mmHg 75%
    05:00 +7°C° 0 mm 1 mps 760 mmHg 75%
    06:00 +7°C° 0 mm 1 mps 760 mmHg 75%
    07:00 +8°C° 0 mm 1 mps 759 mmHg 70%
    08:00 +9°C° 0 mm 1 mps 759 mmHg 65%
    09:00 +9°C° 0 mm 2 mps 759 mmHg 60%
    10:00 +10°C° 0 mm 2 mps 758 mmHg 57%
    11:00 +13°C° 0 mm 2 mps 758 mmHg 54%
    12:00 +14°C° 0 mm 2 mps 757 mmHg 50%
    13:00 +14°C° 0 mm 2 mps 756 mmHg 50%
    14:00 +14°C° 0 mm 2 mps 756 mmHg 50%
    15:00 +14°C° 0 mm 2 mps 755 mmHg 51%
    16:00 +13°C° 0 mm 2 mps 755 mmHg 54%
    17:00 +12°C° 0 mm 2 mps 755 mmHg 58%
    18:00 +10°C° 0 mm 2 mps 755 mmHg 61%
    19:00 +10°C° 0 mm 3 mps 754 mmHg 60%
    20:00 +9°C° 0 mm 3 mps 754 mmHg 59%
    21:00 +9°C° 0 mm 3 mps 754 mmHg 58%
    22:00 +8°C° 0 mm 3 mps 754 mmHg 57%
    23:00 +8°C° 0 mm 3 mps 753 mmHg 56%

    23 January, Tuesday

    Time Temperature Precipitation Wind Pressure Humidity
    00:00 +6°C° 0 mm 4 mps 753 mmHg 55%
    01:00 +6°C° 0 mm 4 mps 753 mmHg 54%
    02:00 +6°C° 0 mm 4 mps 753 mmHg 53%
    03:00 +6°C° 0 mm 4 mps 753 mmHg 52%
    04:00 +5°C° 0 mm 4 mps 753 mmHg 51%
    05:00 +5°C° 0 mm 4 mps 753 mmHg 50%
    06:00 +5°C° 0 mm 4 mps 753 mmHg 49%
    07:00 +6°C° 0 mm 4 mps 753 mmHg 45%
    08:00 +7°C° 0 mm 4 mps 754 mmHg 40%
    09:00 +8°C° 0 mm 4 mps 754 mmHg 35%
    10:00 +10°C° 0 mm 4 mps 754 mmHg 33%
    11:00 +12°C° 0 mm 4 mps 753 mmHg 30%
    12:00 +14°C° 0 mm 4 mps 753 mmHg 27%
    13:00 +14°C° 0 mm 4 mps 753 mmHg 27%
    14:00 +15°C° 0 mm 4 mps 753 mmHg 27%
    15:00 +15°C° 0 mm 4 mps 753 mmHg 27%
    16:00 +13°C° 0 mm 3 mps 754 mmHg 33%
    17:00 +12°C° 0 mm 3 mps 754 mmHg 38%
    18:00 +10°C° 0 mm 2 mps 754 mmHg 44%
    19:00 +10°C° 0 mm 2 mps 755 mmHg 48%
    20:00 +9°C° 0 mm 2 mps 755 mmHg 53%
    21:00 +8°C° 0 mm 2 mps 755 mmHg 58%
    22:00 +8°C° 0 mm 2 mps 755 mmHg 63%
    23:00 +7°C° 0 mm 2 mps 755 mmHg 68%

    24 January, Wednesday

    Time Temperature Precipitation Wind Pressure Humidity
    00:00 +7°C° 0 mm 2 mps 755 mmHg 73%
    01:00 +7°C° 0 mm 2 mps 755 mmHg 76%
    02:00 +6°C° 0 mm 2 mps 756 mmHg 78%
    03:00 +6°C° 0 mm 2 mps 756 mmHg 81%
    04:00 +6°C° 0 mm 2 mps 756 mmHg 82%
    05:00 +5°C° 0 mm 3 mps 757 mmHg 83%
    06:00 +5°C° 0 mm 3 mps 757 mmHg 84%
    07:00 +5°C° 0 mm 3 mps 758 mmHg 81%
    08:00 +7°C° 0 mm 3 mps 758 mmHg 78%
    09:00 +7°C° 0 mm 3 mps 759 mmHg 75%
    10:00 +8°C° 0 mm 3 mps 759 mmHg 70%
    11:00 +9°C° 0 mm 3 mps 759 mmHg 65%
    12:00 +10°C° 0 mm 3 mps 759 mmHg 61%
    13:00 +10°C° 0 mm 3 mps 759 mmHg 59%
    14:00 +10°C° 0 mm 3 mps 759 mmHg 58%
    15:00 +10°C° 0 mm 2 mps 759 mmHg 57%
    16:00 +10°C° 0 mm 3 mps 760 mmHg 62%
    17:00 +9°C° 0 mm 3 mps 761 mmHg 67%
    18:00 +7°C° 0 mm 4 mps 761 mmHg 72%
    19:00 +7°C° 0 mm 4 mps 762 mmHg 74%
    20:00 +7°C° 0 mm 4 mps 762 mmHg 75%
    21:00 +6°C° 0 mm 4 mps 763 mmHg 77%
    22:00 +6°C° 0 mm 4 mps 763 mmHg 78%
    23:00 +6°C° 0 mm 4 mps 763 mmHg 79%

    25 January, Thursday

    Time Temperature Precipitation Wind Pressure Humidity
    00:00 +7°C° 0 mm 3 mps 764 mmHg 80%
    01:00 +5°C° 0 mm 3 mps 764 mmHg 80%
    02:00 +5°C° 0 mm 3 mps 765 mmHg 81%
    03:00 +5°C° 0 mm 3 mps 765 mmHg 81%
    04:00 +5°C° 0 mm 3 mps 766 mmHg 80%
    05:00 +5°C° 0 mm 4 mps 766 mmHg 80%
    06:00 +5°C° 0 mm 4 mps 767 mmHg 79%
    07:00 +5°C° 0 mm 5 mps 767 mmHg 76%
    08:00 +5°C° 0 mm 5 mps 768 mmHg 73%
    09:00 +4°C° 0 mm 6 mps 768 mmHg 71%
    10:00 +5°C° 0 mm 6 mps 768 mmHg 68%
    11:00 +5°C° 0 mm 6 mps 768 mmHg 64%
    12:00 +7°C° 0 mm 6 mps 768 mmHg 61%
    13:00 +7°C° 0 mm 6 mps 769 mmHg 62%
    14:00 +7°C° 0 mm 6 mps 769 mmHg 62%
    15:00 +5°C° 0 mm 7 mps 769 mmHg 62%
    16:00 +5°C° 0 mm 7 mps 769 mmHg 64%
    17:00 +4°C° 0 mm 7 mps 769 mmHg 66%
    18:00 +3°C° 0 mm 7 mps 770 mmHg 68%
    19:00 +3°C° 0.1 mm 7 mps 770 mmHg 69%
    20:00 +3°C° 0.1 mm 7 mps 770 mmHg 69%
    21:00 +2°C° 0.1 mm 7 mps 771 mmHg 70%
    22:00 +2°C° 0.1 mm 7 mps 771 mmHg 70%
    23:00 +2°C° 0.1 mm 7 mps 771 mmHg 71%
    Show more